Regional Weather Roundup
Issued by NWS

Home | Current Version | Previous Version | Graphics & Text | Print | Product List | Glossary Off
Versions: 1 2 3 4 5 6 7 8 9 10 11 12 13 14 15 16 17 18 19 20 21 22 23 24 25 26 27 28 29 30 31 32 33 34 35 36 37 38 39 40 41 42 43 44 45 46 47 48 49 50

000
ASUS43 KIND 201959
RWRIN

WEATHER ROUNDUP FOR INDIANA
NATIONAL WEATHER SERVICE INDIANAPOLIS IN
400 PM EDT SAT SEP 20 2014

NOTE: "FAIR" INDICATES FEW OR NO CLOUDS BELOW 12,000 FEET WITH NO
SIGNIFICANT WEATHER AND/OR OBSTRUCTIONS TO VISIBILITY.

* - STATION DOES NOT REPORT WEATHER SUCH AS PRECIPITATION OR FOG.

+ - STATION NOT QUALITY CONTROLLED BY THE NATIONAL WEATHER SERVICE.
    USE DATA WITH CAUTION...ESPECIALLY DEWPOINT AND RELATIVE
    HUMIDITY OBSERVATIONS.

INZ001>003-010>013-019-020-202100-
NORTHWEST INDIANA

CITY           SKY/WX    TMP DP  RH WIND       PRES   REMARKS
GARY /AIRPORT/ PTSUNNY   77  68  73 W12       29.85S
VALPARAISO     PTSUNNY   79  64  60 SW15      29.84F

$$

LMZ046-743>745-202100-
SOUTHERN LAKE MICHIGAN

STATION/POSITION TIME  TEMP WIND        PRES
                       AIR  DIR/SP/G
                 (UTC) (F)  (DEG/KT/KT) (MB)
MICHIGAN CITY    1900   76  200/ 18/ 24   N/A

$$

INZ004-005-014>016-021>024-202100-
NORTH CENTRAL INDIANA

CITY           SKY/WX    TMP DP  RH WIND       PRES   REMARKS
GOSHEN         MOSUNNY   81  64  56 SW20G30   29.85F
SOUTH BEND     PTSUNNY   79  64  60 SW14      29.84F

$$

INZ006>009-017-018-025>027-202100-
NORTHEAST INDIANA

CITY           SKY/WX    TMP DP  RH WIND       PRES   REMARKS
ANGOLA *+      PTSUNNY   81  75  83 S16       29.86F
FORT WAYNE     PTSUNNY   79  62  56 SW22G29   29.90F

$$

INZ028-029-035-036-043>045-051>053-202100-
WEST CENTRAL INDIANA

CITY           SKY/WX    TMP DP  RH WIND       PRES   REMARKS
GREENCASTLE +  MOSUNNY   79  68  69 S8        29.95F
LAFAYETTE      MOSUNNY   80  65  59 SW14G24   29.87F
TERRE HAUTE    MOSUNNY   82  67  60 SW9       29.94F

$$

INZ030>032-037>040-046>048-054>057-064-065-202100-
CENTRAL INDIANA

CITY           SKY/WX    TMP DP  RH WIND       PRES   REMARKS
ANDERSON       MOSUNNY   79  59  50 SW16G23   29.96F
INDIANAPOLIS   CLOUDY    80  65  59 SW17G26   29.94F
-EAGLE CREEK   PTSUNNY   80  64  58 S10       29.93F
KOKOMO *+      MOSUNNY   81  63  54 SW22      29.90F
MT COMFORT *+  MOSUNNY   81  54  39 SW14G21   29.96F
SHELBYVILLE    PTSUNNY   81  64  56 SW15G24   29.95F

$$

INZ033-034-041-042-049-050-058-059-202100-
EAST CENTRAL INDIANA

CITY           SKY/WX    TMP DP  RH WIND       PRES   REMARKS
MUNCIE         SUNNY     80  59  48 SW15G26   29.93F

$$

INZ060-061-067>069-081>083-085>088-202100-
SOUTHWEST INDIANA

CITY           SKY/WX    TMP DP  RH WIND       PRES   REMARKS
EVANSVILLE     MOSUNNY   85  64  49 SW16      29.98F

$$

INZ062-063-066-070>080-084-089>092-202100-
SOUTH CENTRAL AND SOUTHEAST INDIANA

CITY           SKY/WX    TMP DP  RH WIND       PRES   REMARKS
BLOOMINGTON    MOSUNNY   80  66  62 SW9       29.97F

$$



USA.gov is the U.S. government's official web portal to all federal, state and local government web resources and services.